Location: Observatory
(52.1446°N, 0.4624°W)
Time: 15:52:34
(UTC+01:00)

ISS - Pass Details

Date: 08 January 2018
Orbit: 402 x 409 km, 51.6° (Epoch: 17 August)

Event Time Altitude Azimuth Distance (km) Brightness Sun altitude
Exits shadow 04:18:28 - 84° (E) 1,668 0.1 -34.1°
Enters shadow 05:15:18 -67° 273° (W) 12,133 3.6 -25.4°
Maximum altitude 05:51:22 76° 190° (S) 440 -3.8 -20.0°
